FW3232 Weather Reports


Display with metric or nautical units.
time (UTC)temp
F
wind
direction
speed
MPH
gust
MPH
rain 1hr
in
rain 24hr
in
rain mn
in
humidity
%
barometer
mb
20260506125913 48 48 2.0 6.0 0.00 0.00 0.00 84 1016.8
20260506125413 47 71 3.0 7.0 0.00 0.00 0.00 84 1016.8
20260506124911 47 57 3.0 9.0 0.00 0.00 0.00 85 1016.8
20260506124413 47 63 4.0 8.0 0.00 0.00 0.00 85 1016.9
20260506123913 47 85 2.0 9.0 0.00 0.00 0.00 86 1016.8
20260506123411 47 32 2.0 7.0 0.00 0.00 0.00 86 1016.9
20260506122914 47 40 3.0 8.0 0.00 0.00 0.00 86 1016.9
20260506122413 47 32 1.0 7.0 0.00 0.00 0.00 87 1016.8
20260506121913 46 105 4.0 8.0 0.00 0.00 0.00 87 1016.7
20260506121414 46 75 3.0 9.0 0.00 0.00 0.00 87 1016.6
20260506120916 46 58 4.0 7.0 0.00 0.00 0.00 87 1016.5
20260506120415 46 83 3.0 6.0 0.00 0.00 0.00 87 1016.5
20260506115914 46 0 0.0 4.0 0.00 0.00 0.00 88 1016.5
20260506115414 46 39 0.0 5.0 0.00 0.00 0.00 88 1016.7
20260506114913 46 129 2.0 4.0 0.00 0.00 0.00 88 1016.7
20260506114414 46 69 2.0 5.0 0.00 0.00 0.00 87 1016.4
20260506113913 46 25 2.0 6.0 0.00 0.00 0.00 87 1016.4
20260506113411 46 24 3.0 5.0 0.00 0.00 0.00 87 1016.4
20260506112911 46 54 1.0 4.0 0.00 0.00 0.00 88 1015.8
20260506112413 46 37 3.0 5.0 0.00 0.00 0.00 87 1015.7
20260506111914 46 68 1.0 6.0 0.00 0.00 0.00 88 1015.6
20260506111414 46 301 1.0 4.0 0.00 0.00 0.00 89 1015.7
20260506110914 46 13 1.0 5.0 0.00 0.00 0.00 89 1015.6
20260506110413 46 33 4.0 5.0 0.00 0.00 0.00 89 1015.7
20260506105915 46 63 2.0 5.0 0.00 0.00 0.00 89 1015.6
20260506105411 46 47 3.0 4.0 0.00 0.00 0.00 89 1015.5
20260506104914 46 110 0.0 4.0 0.00 0.00 0.00 89 1015.3
20260506104413 46 39 3.0 4.0 0.00 0.00 0.00 89 1015.1
20260506103913 46 43 2.0 4.0 0.00 0.00 0.00 89 1015.1
20260506103413 46 51 2.0 4.0 0.00 0.00 0.00 89 1015.0
20260506102912 46 53 2.0 4.0 0.00 0.00 0.00 89 1014.9
20260506102414 46 45 0.0 3.0 0.00 0.00 0.00 89 1014.6
20260506101911 46 31 2.0 5.0 0.00 0.00 0.00 89 1014.6
20260506101411 46 15 2.0 3.0 0.00 0.00 0.00 89 1014.5
20260506100913 46 96 0.0 4.0 0.00 0.00 0.00 87 1014.3
20260506100413 46 45 2.0 4.0 0.00 0.00 0.00 88 1014.2
20260506095912 46 58 1.0 4.0 0.00 0.00 0.00 87 1014.1
20260506095414 46 54 1.0 2.0 0.00 0.00 0.00 87 1014.0
20260506094912 46 140 2.0 4.0 0.00 0.00 0.00 87 1013.7
20260506094411 46 126 1.0 2.0 0.00 0.00 0.00 87 1013.7
20260506093911 46 128 1.0 4.0 0.00 0.00 0.00 86 1013.6
20260506093413 46 107 3.0 4.0 0.00 0.00 0.00 87 1013.6
20260506092911 46 119 0.0 5.0 0.00 0.00 0.00 87 1013.7
20260506092413 46 120 3.0 5.0 0.00 0.00 0.00 87 1013.6
20260506091914 46 128 3.0 4.0 0.00 0.00 0.00 87 1014.0
20260506091413 46 71 3.0 4.0 0.00 0.00 0.00 86 1014.2
20260506090914 46 44 2.0 4.0 0.00 0.00 0.00 86 1014.3
20260506090412 46 92 1.0 4.0 0.00 0.00 0.00 87 1014.1
20260506085913 46 119 2.0 3.0 0.00 0.00 0.00 86 1014.1
20260506085419 46 0 0.0 4.0 0.00 0.00 0.00 86 1014.0
20260506084912 46 53 2.0 4.0 0.00 0.00 0.00 85 1014.1
20260506084411 46 123 2.0 7.0 0.00 0.00 0.00 85 1014.1
20260506083913 46 105 3.0 6.0 0.00 0.00 0.00 84 1013.9
20260506083411 46 147 2.0 4.0 0.00 0.00 0.00 85 1013.7
20260506082912 46 131 3.0 6.0 0.00 0.00 0.00 86 1013.3
20260506082411 46 109 5.0 9.0 0.00 0.00 0.00 86 1013.1
20260506081913 46 112 3.0 5.0 0.00 0.00 0.00 86 1012.9
20260506081411 46 129 4.0 6.0 0.00 0.00 0.00 87 1012.8
20260506080911 46 146 4.0 5.0 0.00 0.00 0.00 87 1012.8
20260506080413 46 132 2.0 4.0 0.00 0.00 0.00 88 1013.0
20260506073413 46 108 2.0 4.0 0.00 0.00 0.00 91 1012.3
20260506072912 46 113 1.0 5.0 0.00 0.00 0.00 92 1012.6
20260506072411 46 119 3.0 5.0 0.00 0.00 0.00 91 1013.1
20260506071914 46 84 2.0 4.0 0.00 0.00 0.00 92 1013.2
20260506071411 46 136 1.0 3.0 0.00 0.00 0.00 91 1013.6
20260506070912 46 97 1.0 4.0 0.00 0.00 0.00 91 1013.3
20260506070414 46 62 1.0 4.0 0.00 0.00 0.00 91 1013.4
20260506062411 46 75 2.0 5.0 0.00 0.00 0.00 95 1013.4
20260506061912 46 78 3.0 4.0 0.00 0.00 0.00 95 1013.4
20260506061413 46 45 2.0 4.0 0.00 0.00 0.00 96 1013.6
20260506060911 46 63 2.0 5.0 0.00 0.00 0.00 96 1013.6
20260506060411 46 22 3.0 5.0 0.00 0.00 0.00 96 1013.8
20260506051411 46 120 1.0 3.0 0.00 0.00 0.00 94 1013.0
20260506050913 46 75 2.0 5.0 0.00 0.00 0.00 94 1013.1
20260506050411 46 103 3.0 4.0 0.00 0.00 0.00 94 1012.9
20260506044911 46 131 1.0 3.0 0.00 0.00 0.00 94 1012.6
20260506044411 46 111 1.0 3.0 0.00 0.00 0.00 95 1012.6
20260506043911 46 113 0.0 4.0 0.00 0.00 0.00 94 1012.6
20260506043413 46 55 2.0 3.0 0.00 0.00 0.00 95 1012.5
20260506042911 46 61 0.0 1.0 0.00 0.00 0.00 95 1012.6
20260506041947 46 78 3.0 7.0 0.00 0.00 0.00 94 1012.5
20260506041411 46 78 3.0 5.0 0.00 0.00 0.00 94 1012.4
20260506040913 46 69 1.0 6.0 0.00 0.00 0.00 94 1012.4
20260506040413 46 136 4.0 8.0 0.00 0.00 0.00 93 1012.3
20260506035911 46 91 4.0 7.0 0.00 0.00 0.00 93 1012.3
20260506035412 46 137 2.0 4.0 0.00 0.00 0.00 94 1012.3
20260506034911 46 39 2.0 3.0 0.00 0.00 0.00 94 1012.4
20260506034412 46 134 2.0 5.0 0.00 0.00 0.00 94 1012.4
20260506033913 46 71 3.0 4.0 0.00 0.00 0.00 94 1012.3
20260506033411 46 130 2.0 9.0 0.00 0.00 0.00 94 1012.2
20260506032911 46 122 2.0 8.0 0.00 0.00 0.00 95 1012.1
20260506032411 46 113 2.0 8.0 0.00 0.00 0.00 95 1012.0
20260506031911 46 58 4.0 6.0 0.00 0.00 0.00 96 1011.8
20260506031414 46 125 2.0 3.0 0.00 0.00 0.00 97 1011.8
20260506030911 46 83 1.0 5.0 0.00 0.00 0.00 96 1011.7
20260506030411 46 86 1.0 5.0 0.00 0.00 0.00 96 1011.6
20260506025911 46 60 3.0 6.0 0.00 0.00 0.00 96 1011.5
20260506025411 46 53 3.0 6.0 0.00 0.00 0.00 95 1011.5
20260506024911 46 82 3.0 6.0 0.00 0.00 0.00 95 1011.3
20260506024411 47 116 3.0 6.0 0.00 0.00 0.00 94 1011.2
20260506023911 47 112 2.0 6.0 0.00 0.00 0.00 93 1011.2
20260506023411 47 106 3.0 9.0 0.00 0.00 0.00 93 1011.5
20260506022911 47 131 2.0 8.0 0.00 0.00 0.00 91 1011.6
20260506022412 47 104 4.0 8.0 0.00 0.00 0.00 91 1011.7
20260506021912 47 133 4.0 11.0 0.00 0.00 0.00 90 1011.7
20260506021411 47 102 5.0 10.0 0.00 0.00 0.00 91 1011.0
20260506020918 47 80 4.0 8.0 0.00 0.00 0.00 91 1010.7
20260506020413 47 95 2.0 8.0 0.00 0.00 0.00 92 1010.7
20260506015912 47 124 3.0 8.0 0.00 0.00 0.00 91 1010.8
20260506015412 47 114 3.0 7.0 0.00 0.00 0.00 91 1010.7
20260506014914 47 120 3.0 6.0 0.00 0.00 0.00 92 1010.6
20260506014411 47 112 3.0 9.0 0.00 0.00 0.00 92 1010.5
20260506013911 47 79 3.0 8.0 0.00 0.00 0.00 93 1010.2
20260506013411 47 59 3.0 8.0 0.00 0.00 0.00 93 1010.3
20260506012911 47 109 4.0 10.0 0.00 0.00 0.00 92 1010.0
20260506012411 47 81 4.0 10.0 0.00 0.00 0.00 93 1010.1
20260506011912 47 82 4.0 15.0 0.00 0.00 0.00 93 1010.3
20260506011412 47 109 6.0 13.0 0.00 0.00 0.00 92 1010.3
20260506010912 47 113 3.0 9.0 0.00 0.00 0.00 92 1010.1
20260506010414 47 84 4.0 14.0 0.00 0.00 0.00 92 1010.2
20260506005911 47 115 5.0 8.0 0.00 0.00 0.00 92 1010.0
20260506005413 47 100 4.0 9.0 0.00 0.00 0.00 93 1010.0
20260506004911 47 79 2.0 8.0 0.00 0.00 0.00 93 1010.3
20260506004412 47 108 2.0 7.0 0.00 0.00 0.00 95 1010.2
20260506003912 47 78 5.0 8.0 0.00 0.00 0.00 95 1010.0
20260506003416 47 91 5.0 12.0 0.00 0.00 0.00 94 1009.7
20260506002913 47 105 6.0 12.0 0.00 0.00 0.00 94 1009.7
20260506002411 47 78 3.0 12.0 0.00 0.00 0.00 95 1009.7
20260506001911 48 77 4.0 9.0 0.00 0.00 0.00 96 1009.6
20260506001412 48 105 3.0 8.0 0.00 0.00 0.00 96 1009.4
20260506000912 48 86 3.0 8.0 0.00 0.00 0.00 95 1009.7
20260506000416 48 100 3.0 4.0 0.00 0.00 0.00 96 1009.5
20260505235911 48 107 1.0 4.0 0.00 0.00 0.00 95 1009.5
20260505235412 48 104 2.0 7.0 0.00 0.00 0.00 94 1009.3
20260505234912 48 77 3.0 7.0 0.00 0.00 0.00 93 1009.0
20260505234411 49 103 3.0 8.0 0.00 0.00 0.00 92 1009.0
20260505233912 49 114 4.0 9.0 0.00 0.00 0.00 92 1008.9
20260505233411 49 104 2.0 8.0 0.00 0.00 0.00 91 1009.0
20260505232911 49 99 3.0 8.0 0.00 0.00 0.00 91 1009.0
20260505232411 49 21 2.0 10.0 0.00 0.00 0.00 90 1009.1
20260505231911 49 72 3.0 9.0 0.00 0.00 0.00 90 1009.2
20260505231412 49 122 4.0 9.0 0.00 0.00 0.00 92 1009.1
20260505230912 49 100 2.0 6.0 0.00 0.00 0.00 92 1009.2
20260505230411 49 53 3.0 8.0 0.00 0.00 0.00 93 1009.0
20260505225911 49 61 4.0 8.0 0.00 0.00 0.00 92 1008.8
20260505225412 49 46 2.0 7.0 0.00 0.00 0.00 93 1008.7
20260505224912 49 48 4.0 7.0 0.00 0.00 0.00 93 1008.5
20260505224412 49 47 3.0 7.0 0.00 0.00 0.00 93 1008.6
20260505223911 49 95 1.0 7.0 0.00 0.00 0.00 92 1008.5
20260505223411 49 42 4.0 9.0 0.00 0.00 0.00 92 1008.3
20260505222911 50 84 4.0 7.0 0.00 0.00 0.00 93 1008.3
20260505222415 50 26 3.0 7.0 0.00 0.00 0.00 93 1008.5
20260505221914 50 29 3.0 8.0 0.00 0.00 0.00 93 1008.3
20260505221412 50 89 4.0 8.0 0.00 0.00 0.00 93 1008.6
20260505220911 51 57 4.0 8.0 0.00 0.00 0.00 92 1009.0
20260505220411 51 110 3.0 11.0 0.00 0.00 0.00 91 1008.6
20260505215912 51 122 2.0 7.0 0.00 0.00 0.00 93 1008.3
20260505215411 51 60 3.0 8.0 0.00 0.00 0.00 93 1008.1
20260505214913 51 65 3.0 7.0 0.00 0.00 0.00 93 1008.2
20260505214411 51 86 4.0 9.0 0.00 0.00 0.00 92 1008.1
20260505213913 51 105 6.0 9.0 0.00 0.00 0.00 90 1008.2
20260505213414 51 56 2.0 8.0 0.00 0.00 0.00 91 1008.2
20260505212912 52 92 4.0 11.0 0.00 0.00 0.00 91 1008.2
20260505212412 52 94 3.0 10.0 0.00 0.00 0.00 90 1008.1
20260505211913 52 56 4.0 9.0 0.00 0.00 0.00 91 1008.2
20260505211413 52 59 4.0 7.0 0.00 0.00 0.00 91 1008.1
20260505210911 53 49 4.0 7.0 0.00 0.00 0.00 91 1008.1
20260505210413 53 100 2.0 7.0 0.00 0.00 0.00 90 1008.1
20260505205913 53 84 3.0 7.0 0.00 0.00 0.00 91 1008.1
20260505205415 53 93 2.0 8.0 0.00 0.00 0.00 91 1008.1
20260505204912 53 56 4.0 8.0 0.00 0.00 0.00 90 1008.0
20260505204413 53 118 1.0 8.0 0.00 0.00 0.00 91 1007.9
20260505203914 53 59 3.0 7.0 0.00 0.00 0.00 91 1007.9
20260505203414 53 87 3.0 9.0 0.00 0.00 0.00 90 1008.0
20260505202914 53 89 3.0 6.0 0.00 0.00 0.00 90 1008.1
20260505202414 53 88 3.0 6.0 0.00 0.00 0.00 91 1008.2
20260505201914 54 65 2.0 5.0 0.00 0.00 0.00 92 1008.2
20260505201413 54 65 2.0 6.0 0.00 0.00 0.00 92 1008.3
20260505200914 54 36 2.0 6.0 0.00 0.00 0.00 90 1008.3
20260505200413 54 57 2.0 10.0 0.00 0.00 0.00 90 1007.9
20260505195914 54 90 4.0 14.0 0.00 0.00 0.00 90 1007.5
20260505195411 54 117 6.0 14.0 0.00 0.00 0.00 92 1007.4
20260505194914 55 120 4.0 7.0 0.00 0.00 0.00 93 1007.5
20260505194411 55 83 3.0 8.0 0.00 0.00 0.00 93 1007.5
20260505193914 55 75 1.0 6.0 0.00 0.00 0.00 94 1007.5
20260505193414 55 89 2.0 6.0 0.00 0.00 0.00 94 1007.3
20260505192914 55 74 2.0 6.0 0.00 0.00 0.00 95 1007.5
20260505192413 55 103 2.0 6.0 0.00 0.00 0.00 94 1007.7
20260505191912 55 124 2.0 5.0 0.00 0.00 0.00 94 1008.0
20260505191411 54 22 3.0 10.0 0.00 0.00 0.00 95 1007.9
20260505190913 54 111 6.0 10.0 0.00 0.00 0.00 94 1007.8
20260505190413 55 113 2.0 6.0 0.00 0.00 0.00 94 1007.8
20260505185430 55 55 6.0 11.0 0.00 0.00 0.00 94 1007.6
20260505184914 55 80 3.0 6.0 0.00 0.00 0.00 94 1007.5
20260505184412 55 27 2.0 9.0 0.00 0.00 0.00 94 1007.4
20260505183914 55 50 3.0 7.0 0.00 0.00 0.00 94 1007.1
20260505183413 55 44 4.0 9.0 0.00 0.00 0.00 95 1007.1
20260505182914 55 59 3.0 8.0 0.00 0.00 0.00 94 1007.3
20260505182413 56 69 5.0 8.0 0.00 0.00 0.00 94 1007.4
20260505181911 56 74 4.0 8.0 0.00 0.00 0.00 94 1007.3
20260505180926 56 39 2.0 6.0 0.00 0.00 0.00 94 1007.3
20260505180414 56 86 2.0 5.0 0.00 0.00 0.00 94 1007.3
20260505175913 57 20 2.0 7.0 0.00 0.00 0.00 93 1007.3
20260505175414 57 73 3.0 6.0 0.00 0.00 0.00 92 1007.3
20260505174913 58 97 2.0 8.0 0.00 0.00 0.00 91 1007.3
20260505174411 58 35 6.0 8.0 0.00 0.00 0.00 91 1007.1
20260505173914 59 55 4.0 7.0 0.00 0.00 0.00 90 1007.2
20260505173413 59 59 2.0 9.0 0.00 0.00 0.00 89 1007.1
20260505172913 59 54 2.0 9.0 0.00 0.00 0.00 90 1007.1
20260505172414 59 74 2.0 8.0 0.00 0.00 0.00 90 1007.1
20260505171914 59 56 4.0 8.0 0.00 0.00 0.00 90 1007.0
20260505171414 59 342 3.0 5.0 0.00 0.00 0.00 92 1007.1
20260505170914 60 95 2.0 7.0 0.00 0.00 0.00 91 1006.9
20260505170413 60 80 2.0 7.0 0.00 0.00 0.00 91 1007.0
20260505165913 60 338 2.0 6.0 0.00 0.00 0.00 92 1007.0
20260505165414 60 95 2.0 5.0 0.00 0.00 0.00 93 1007.0
20260505164914 60 103 2.0 5.0 0.00 0.00 0.00 93 1006.9
20260505164414 60 75 2.0 5.0 0.00 0.00 0.00 93 1006.8
20260505163912 60 73 2.0 4.0 0.00 0.00 0.00 93 1006.9
20260505163413 60 51 1.0 6.0 0.00 0.00 0.00 93 1006.9
20260505162912 61 108 3.0 6.0 0.00 0.00 0.00 92 1006.9
20260505162411 61 56 3.0 8.0 0.00 0.00 0.00 91 1006.9
20260505161912 62 70 2.0 8.0 0.00 0.00 0.00 91 1006.9
20260505161414 63 66 3.0 9.0 0.00 0.00 0.00 90 1006.9
20260505160914 64 52 3.0 7.0 0.00 0.00 0.00 87 1006.7
20260505160415 65 106 2.0 6.0 0.00 0.00 0.00 87 1006.6
20260505152914 67 150 5.0 10.0 0.00 0.00 0.00 83 1006.4
20260505152415 67 126 8.0 11.0 0.00 0.00 0.00 83 1006.1
20260505151914 66 130 4.0 11.0 0.00 0.00 0.00 84 1006.0
20260505151412 65 146 6.0 9.0 0.00 0.00 0.00 86 1005.9
20260505150914 65 148 3.0 5.0 0.00 0.00 0.00 85 1006.4
20260505150414 65 166 4.0 5.0 0.00 0.00 0.00 85 1006.5